sat.trackr.live / text

‹ back to catalog

STARLINK-31977

NORAD 59892 · 2024-100H

PAYLOAD ACTIVE UNKNOWN

§ Identity

Operator
Country
US
Launch date
2024-05-28
Launch site
AFETR
Launch vehicle
Mass (kg)
RCS (m²)

Purposes: comms

External: N2YO · Heavens-Above · Gunter

§ Orbital elements

Epoch: 2026-05-25T01:57:35.341056Z

Period
94.27 min
Inclination
43.0005°
Eccentricity
0.0000966
Mean motion
15.27587497 rev/d
Perigee alt
482.4 km
Apogee alt
483.7 km
Semi-major
6,861.2 km
B*
3.1225e-5
RAAN
46.7411°
Arg perigee
276.4688°
Mean anomaly
83.6054°
Rev number
11,292

§ Raw data

STARLINK-319771 59892U 24100H   26145.08165904  .00000598  00000+0  31225-4 0  99992 59892  43.0005  46.7411 0000966 276.4688  83.6054 15.27587497112928

JSON: /api/v1/satellites/59892 · /tle

For live sub-satellite position, see the globe view (requires WebGL).

§ Visibility from observer

Set your observer location to see the next 7 days of passes ≥ 10°. The values pass through the URL so the page stays shareable.

No JS? Fill the form by hand. The geolocation button needs JavaScript.